Republic Airport
KFRG : now visible

Airfield :











YOU CAN JOIN US ON...

 
LOGIN :

Register | Disclaimer

   EN    FR    IT 

 









Legend :    VFR   Marginal VFR   IFR   Intensive IFR   Very Intensive IFR
Visi :
Ceiling :
>= 8 km
>= 3000ft
5 to 8 km
1000 to 3000 ft
1500m to 5 km
500 to 1000 ft
800 to 1500m
200 to 500 ft
< 800m
< 200 ft
Symbols :   Thunderstorms  Fog  Heavy snow  Heavy precipitations  Wind > 20 kt






- Airport Elevation : 82 ft


KFRG - Republic

CURRENT METAR :
  • 080553Z AUTO 23007KT 10SM BKN060 OVC075 04/02 A3011 RMK AO2 RAB0454E43 SLP196 P0000 60002 T00440022 10056 20044 56027

EXPIRED METARs :
  • 080453Z AUTO 21005KT 9SM BKN070 OVC090 04/03 A3013 RMK AO2 RAE16 SLP202 P0000 T00440028 400561022
  • 080353Z 21006KT 7SM -RA BKN060 OVC075 04/02 A3015 RMK AO2 SLP210 P0002 T00440022

TAF N/A
KZNY FIR / North America



MET'MAP, your aeronautical weather chart ! - Copyright ORBIFLY December 2007 - Disclaimer

ORBIFLY MET'MAP TEAM :

Programming & Development : Alexandra Zaïnal
Original concept : Baudouin d'Aumeries
Technical & hardware support : Manuel Goepfert
Assistance : Marc-Olivier Méhu




SOURCES & CREDITS :

   NOAA       Earth
Advisory